Regional Weather Roundup
Issued by NWS

Home | Current Version | Previous Version | Text Only | Print | Product List | Glossary On
Versions: 1 2 3 4 5 6 7 8 9 10 11 12 13 14 15 16 17 18 19 20 21 22 23 24 25 26 27 28 29 30 31 32 33 34 35 36 37 38 39 40 41 42 43 44 45 46 47 48 49 50
000
ASUS45 KREV 160210
RWRNV
NEVADA REGIONAL WEATHER ROUNDUP
NATIONAL WEATHER SERVICE RENO NV
700 PM PDT MON SEP 15 2014

NOTE: "FAIR" INDICATES FEW OR NO CLOUDS BELOW 12,000 FEET WITH NO
SIGNIFICANT WEATHER AND/OR OBSTRUCTIONS TO VISIBILITY.

NVZ001-003-004-160300-
WESTERN NEVADA

CITY           SKY/WX    TMP DP  RH WIND       PRES   REMARKS
RENO           PTCLDY    83  43  24 NW12      30.00R
MINDEN         FAIR      79  39  24 SW10      30.05R
SLIDE MTN        N/A     57  39  51 W29         N/A
FALLON         MOCLDY    89  40  17 W8        29.93S
LOVELOCK       MOCLDY    86  42  21 N3        29.94S
HAWTHORNE      CLEAR     90  30  12 SW10      29.95S
$$

NVZ002-CAZ072-073-160300-
NORTHERN AND CENTRAL SIERRA

CITY           SKY/WX    TMP DP  RH WIND       PRES   REMARKS
S. LAKE TAHOE  CLEAR     74  39  28 SW7       30.17R
TRUCKEE        CLOUDY    68  41  37 SW8       30.15S
SQUAW VLY 8000 NOT AVBL
SUSANVILLE     CLEAR     79  45  29 SW12      30.01S
BLUE CANYON    CLEAR     72  33  24 SW5       30.14S
MAMMOTH LAKES  FAIR      70  37  30 W15       30.24S
BRIDGEPORT     FAIR      71  37  28 SW7       30.19S
$$

NVZ030-031-036-160300-
NORTHERN NEVADA

CITY           SKY/WX    TMP DP  RH WIND       PRES   REMARKS
ELKO           CLEAR     79  29  16 NW6       30.06S
WINNEMUCCA     NOT AVBL
WENDOVER       CLEAR     82  32  16 CALM      30.04F
$$

NVZ035-037-160300-
CENTRAL NEVADA

CITY           SKY/WX    TMP DP  RH WIND       PRES   REMARKS
ELY            MOCLDY    75  37  25 N7        30.18R
EUREKA           N/A     82  30  15 W3        30.11F
$$

NVZ013-014-160300-
SOUTH CENTRAL NEVADA

CITY           SKY/WX    TMP DP  RH WIND       PRES   REMARKS
TONOPAH        CLEAR     83  34  17 SE8       30.09S
$$

NVZ017-020-022-160300-
SOUTHERN NEVADA

CITY           SKY/WX    TMP DP  RH WIND       PRES   REMARKS
LAS VEGAS      PTCLDY    99  39  12 CALM      29.81S
N. LAS VEGAS   CLEAR     97  38  13 E5        29.84S
NELLIS AFB     CLEAR    100  39  12 S2        29.81F
HENDERSON      CLEAR     97  43  15 NE3       29.88S
MERCURY        CLEAR     94  37  13 SE8       29.92S
$$



USA.gov is the U.S. government's official web portal to all federal, state and local government web resources and services.